EW1719 Weather Reports


time (UTC)temp
C
wind
direction
speed
KPH
gust
KPH
rain 1hr
cm
rain 24hr
cm
rain mn
cm
humidity
%
barometer
mb
20260505153017 21 236 0.0 4.8 0.00 0.00 0.00 63 1015.8
20260505152504 21 360 3.2 8.0 0.00 0.00 0.00 63 1016.2
20260505151624 20 58 1.6 4.8 0.00 0.00 0.00 65 1015.8
20260505151604 21 59 1.6 4.8 0.00 0.00 0.00 65 1016.1
20260505150726 20 49 1.6 4.8 0.00 0.00 0.00 66 1016.0
20260505140405 17 299 1.6 3.2 0.00 0.00 0.00 70 1016.3
20260505130105 13 279 0.0 3.2 0.00 0.00 0.00 85 1016.5
20260505130103 13 279 0.0 3.2 0.00 0.00 0.00 85 1016.3
20260505124504 12 279 0.0 0.0 0.00 0.00 0.00 89 1015.9
20260505124305 12 0 0.0 0.0 0.00 0.00 0.00 90 1016.0
20260505123405 11 0 0.0 0.0 0.00 0.00 0.00 91 1015.9
20260505123009 11 279 0.0 0.0 0.00 0.00 0.00 91 1015.6
20260505122505 11 0 0.0 0.0 0.00 0.00 0.00 91 1015.9
20260505121605 10 279 0.0 3.2 0.00 0.00 0.00 91 1015.8
20260505121510 10 279 0.0 3.2 0.00 0.00 0.00 91 1015.5
20260505120705 10 279 0.0 1.6 0.00 0.00 0.00 91 1015.6
20260505120038 10 279 0.0 0.0 0.00 0.00 0.00 91 1015.3
20260505115826 10 0 0.0 0.0 0.00 0.00 0.00 91 1015.4
20260505114905 10 279 0.0 3.2 0.00 0.00 0.00 92 1015.5
20260505114602 10 279 0.0 1.6 0.00 0.00 0.00 92 1015.2
20260505114026 10 279 0.0 1.6 0.00 0.00 0.00 92 1015.3
20260505113105 10 279 0.0 1.6 0.00 0.00 0.00 91 1015.2
20260505113005 9 279 0.0 1.6 0.00 0.00 0.00 91 1015.0
20260505112226 9 279 0.0 1.6 0.00 0.00 0.00 91 1015.1
20260505111507 9 279 0.0 1.6 0.00 0.00 0.00 91 1014.7
20260505111305 9 279 0.0 1.6 0.00 0.00 0.00 91 1014.8
20260505110405 8 279 1.6 3.2 0.00 0.00 0.00 91 1014.8
20260505101926 9 279 0.0 3.2 0.00 0.00 0.00 91 1014.7
20260505101517 9 279 0.0 3.2 0.00 0.00 0.00 91 1014.4
20260505101005 9 278 0.0 3.2 0.00 0.00 0.00 91 1014.6
20260505100105 9 263 1.6 1.6 0.00 0.00 0.00 90 1014.5
20260505100020 8 275 0.0 1.6 0.00 0.00 0.00 90 1014.3
20260505095226 9 252 1.6 3.2 0.00 0.00 0.00 90 1014.4
20260505094515 8 248 0.0 3.2 0.00 0.00 0.00 90 1014.3
20260505094305 9 247 1.6 3.2 0.00 0.00 0.00 90 1014.5
20260505093426 9 249 0.0 3.2 0.00 0.00 0.00 90 1014.8
20260505093004 9 250 0.0 3.2 0.00 0.00 0.00 90 1014.6
20260505092505 9 251 0.0 1.6 0.00 0.00 0.00 90 1014.8
20260505091605 9 224 0.0 1.6 0.00 0.00 0.00 90 1014.8
20260505091524 9 246 0.0 3.2 0.00 0.00 0.00 90 1014.6
20260505090705 10 208 1.6 4.8 0.00 0.00 0.00 90 1014.6
20260505090010 10 208 0.0 4.8 0.00 0.00 0.00 90 1014.4
20260505085805 10 208 1.6 3.2 0.00 0.00 0.00 90 1014.4
20260505084905 10 208 0.0 3.2 0.00 0.00 0.00 90 1014.5
20260505084507 10 208 0.0 3.2 0.00 0.00 0.00 90 1014.4
20260505084005 10 208 1.6 3.2 0.00 0.00 0.00 90 1014.8
20260505083105 10 207 0.0 3.2 0.00 0.00 0.00 90 1014.8
20260505083014 10 207 0.0 3.2 0.00 0.00 0.00 90 1014.6
20260505082205 10 207 1.6 3.2 0.00 0.00 0.00 90 1014.7
20260505081514 10 207 0.0 3.2 0.00 0.00 0.00 90 1014.5
20260505081305 10 207 1.6 3.2 0.00 0.00 0.00 90 1014.7
20260505080405 10 207 0.0 3.2 0.00 0.00 0.00 90 1014.7
20260505080019 10 208 0.0 3.2 0.00 0.00 0.00 90 1014.5
20260505075505 11 207 0.0 3.2 0.00 0.00 0.00 90 1014.7
20260505074605 11 207 0.0 3.2 0.00 0.00 0.00 90 1014.7
20260505074504 10 207 0.0 3.2 0.00 0.00 0.00 90 1014.5
20260505073705 11 208 1.6 3.2 0.00 0.00 0.00 90 1014.6
20260505073010 10 209 1.6 3.2 0.00 0.00 0.00 90 1014.3
20260505072805 11 207 1.6 3.2 0.00 0.00 0.00 90 1014.6
20260505071905 11 204 0.0 3.2 0.00 0.00 0.00 89 1014.6
20260505071517 10 206 0.0 3.2 0.00 0.00 0.00 89 1014.4
20260505071026 11 202 1.6 3.2 0.00 0.00 0.00 89 1014.6
20260505070126 11 198 1.6 3.2 0.00 0.00 0.00 89 1014.7
20260505070018 11 198 0.0 3.2 0.00 0.00 0.00 89 1014.5
20260505065205 11 197 1.6 3.2 0.00 0.00 0.00 89 1014.7
20260505064511 11 197 1.6 3.2 0.00 0.00 0.00 89 1014.6
20260505064305 11 196 1.6 3.2 0.00 0.00 0.00 89 1014.7
20260505063405 11 215 0.0 3.2 0.00 0.00 0.00 89 1014.8
20260505063008 11 195 0.0 3.2 0.00 0.00 0.00 89 1014.4
20260505062526 11 257 0.0 3.2 0.00 0.00 0.00 89 1014.7
20260505061605 11 261 1.6 3.2 0.00 0.00 0.00 88 1014.8
20260505061527 11 261 0.0 3.2 0.00 0.00 0.00 88 1014.6
20260505060726 11 261 1.6 3.2 0.00 0.00 0.00 89 1014.8
20260505060104 11 261 0.0 3.2 0.00 0.00 0.00 89 1014.7
20260505055826 11 261 1.6 3.2 0.00 0.00 0.00 88 1014.8
20260505054905 11 258 0.0 3.2 0.00 0.00 0.00 88 1014.8
20260505054506 11 255 0.0 3.2 0.00 0.00 0.00 88 1014.6
20260505054005 12 255 1.6 3.2 0.00 0.00 0.00 87 1014.8
20260505053126 12 255 1.6 3.2 0.00 0.00 0.00 87 1014.8
20260505053008 11 255 0.0 3.2 0.00 0.00 0.00 87 1014.6
20260505052205 12 255 0.0 3.2 0.00 0.00 0.00 87 1014.9
20260505051513 12 255 0.0 3.2 0.00 0.00 0.00 87 1014.6
20260505051305 12 255 0.0 3.2 0.00 0.00 0.00 87 1014.8
20260505050405 12 255 0.0 3.2 0.00 0.00 0.00 87 1014.9
20260505041513 13 255 0.0 0.0 0.00 0.00 0.00 84 1014.6
20260505041005 13 254 0.0 1.6 0.00 0.00 0.00 84 1014.7
20260505040105 13 171 0.0 1.6 0.00 0.00 0.00 83 1014.8
20260505040015 13 172 0.0 1.6 0.00 0.00 0.00 83 1014.7
20260505035206 13 224 0.0 1.6 0.00 0.00 0.00 83 1014.8
20260505034508 13 255 0.0 1.6 0.00 0.00 0.00 83 1014.7
20260505034305 13 255 0.0 1.6 0.00 0.00 0.00 82 1014.9
20260505033406 14 255 0.0 1.6 0.00 0.00 0.00 82 1014.8
20260505033010 13 255 0.0 1.6 0.00 0.00 0.00 82 1014.7
20260505032506 14 255 0.0 1.6 0.00 0.00 0.00 82 1014.9
20260505031605 14 254 1.6 3.2 0.00 0.00 0.00 80 1014.9
20260505031535 14 255 0.0 3.2 0.00 0.00 0.00 80 1014.7
20260505030706 15 254 0.0 1.6 0.00 0.00 0.00 79 1014.9
20260505030104 14 254 0.0 1.6 0.00 0.00 0.00 79 1014.8
20260505025806 15 254 0.0 3.2 0.00 0.00 0.00 79 1014.8
20260505024906 15 254 0.0 3.2 0.00 0.00 0.00 78 1014.7
20260505024519 15 254 0.0 0.0 0.00 0.00 0.00 76 1014.7
20260505024005 15 254 0.0 1.6 0.00 0.00 0.00 74 1014.8
20260505023105 15 254 1.6 3.2 0.00 0.00 0.00 75 1014.7
20260505023015 15 254 1.6 3.2 0.00 0.00 0.00 75 1014.5
20260505022206 15 254 0.0 1.6 0.00 0.00 0.00 74 1014.7
20260505021503 15 254 0.0 3.2 0.00 0.00 0.00 73 1014.5
20260505021306 16 254 1.6 3.2 0.00 0.00 0.00 73 1014.7
20260505020406 16 254 1.6 1.6 0.00 0.00 0.00 73 1014.6
20260505020020 16 254 0.0 1.6 0.00 0.00 0.00 73 1014.4
20260505015506 16 254 1.6 3.2 0.00 0.00 0.00 73 1014.5
20260505014606 16 254 0.0 1.6 0.00 0.00 0.00 72 1014.3
20260505014518 16 254 0.0 1.6 0.00 0.00 0.00 72 1014.1
20260505013706 17 254 0.0 1.6 0.00 0.00 0.00 71 1014.3
20260505013111 17 254 0.0 0.0 0.00 0.00 0.00 71 1013.9
20260505012806 17 254 0.0 1.6 0.00 0.00 0.00 71 1014.2
20260505011906 18 252 0.0 1.6 0.00 0.00 0.00 71 1014.1
20260505011506 18 252 0.0 1.6 0.00 0.00 0.00 70 1013.9
20260505011006 18 0 0.0 0.0 0.00 0.00 0.00 70 1013.9
20260505010106 18 0 0.0 0.0 0.00 0.00 0.00 69 1013.8
20260505010014 18 254 0.0 0.0 0.00 0.00 0.00 69 1013.6
20260505005227 19 253 0.0 1.6 0.00 0.00 0.00 69 1013.9
20260505004602 19 254 0.0 1.6 0.00 0.00 0.00 68 1013.6
20260505004306 20 254 0.0 1.6 0.00 0.00 0.00 68 1013.8
20260505003406 20 254 0.0 1.6 0.00 0.00 0.00 61 1013.7
20260505003007 20 245 0.0 1.6 0.00 0.00 0.00 61 1013.5
20260505002506 20 254 0.0 1.6 0.00 0.00 0.00 63 1013.8
20260505001606 21 254 0.0 3.2 0.00 0.00 0.00 59 1013.7
20260505001512 21 254 0.0 1.6 0.00 0.00 0.00 59 1013.5
20260505000706 21 254 0.0 1.6 0.00 0.00 0.00 58 1013.7
20260505000117 21 254 0.0 3.2 0.00 0.00 0.00 56 1013.5
20260504235806 22 259 0.0 3.2 0.00 0.00 0.00 56 1013.6
20260504234906 22 272 0.0 3.2 0.00 0.00 0.00 56 1013.6
20260504234507 22 261 0.0 3.2 0.00 0.00 0.00 55 1013.4
20260504234006 23 254 1.6 3.2 0.00 0.00 0.00 54 1013.6
20260504233106 24 252 0.0 3.2 0.00 0.00 0.00 51 1013.5
20260504233013 23 252 0.0 3.2 0.00 0.00 0.00 49 1013.3
20260504232206 24 256 1.6 8.0 0.00 0.00 0.00 47 1013.6
20260504231516 25 234 1.6 8.0 0.00 0.00 0.00 47 1013.3
20260504231306 25 240 3.2 11.3 0.00 0.00 0.00 46 1013.6
20260504230427 25 263 3.2 6.4 0.00 0.00 0.00 46 1013.5
20260504230006 25 258 3.2 6.4 0.00 0.00 0.00 45 1013.2
20260504225506 26 278 1.6 11.3 0.00 0.00 0.00 47 1013.5
20260504224606 26 258 1.6 11.3 0.00 0.00 0.00 46 1013.6
20260504224510 26 263 1.6 11.3 0.00 0.00 0.00 46 1013.4
20260504223706 26 225 3.2 8.0 0.00 0.00 0.00 46 1013.6
20260504223010 26 223 1.6 6.4 0.00 0.00 0.00 47 1013.4
20260504222806 26 214 3.2 9.7 0.00 0.00 0.00 46 1013.7
20260504221906 26 233 4.8 12.9 0.00 0.00 0.00 44 1013.7
20260504221515 26 234 3.2 12.9 0.00 0.00 0.00 45 1013.5
20260504221027 26 250 4.8 11.3 0.00 0.00 0.00 45 1013.7
20260504220106 26 275 3.2 11.3 0.00 0.00 0.00 46 1013.7
20260504220006 26 311 1.6 11.3 0.00 0.00 0.00 47 1013.5
20260504215227 26 263 3.2 6.4 0.00 0.00 0.00 47 1013.6
20260504214506 25 232 1.6 11.3 0.00 0.00 0.00 47 1013.5
20260504214306 26 280 3.2 11.3 0.00 0.00 0.00 49 1013.7
20260504213406 25 316 3.2 9.7 0.00 0.00 0.00 46 1013.8
20260504213011 25 5 0.0 3.2 0.00 0.00 0.00 50 1013.6
20260504212506 25 255 3.2 8.0 0.00 0.00 0.00 50 1013.9
20260504211606 25 250 3.2 9.7 0.00 0.00 0.00 50 1013.9
20260504211518 25 136 1.6 9.7 0.00 0.00 0.00 49 1013.8
20260504210706 25 217 1.6 9.7 0.00 0.00 0.00 47 1014.1
20260504210004 25 194 3.2 9.7 0.00 0.00 0.00 45 1014.1
20260504205806 25 214 4.8 9.7 0.00 0.00 0.00 46 1014.2
20260504204906 25 215 4.8 14.5 0.00 0.00 0.00 45 1014.1
20260504204508 25 210 0.0 14.5 0.00 0.00 0.00 45 1014.2
20260504204006 25 216 3.2 14.5 0.00 0.00 0.00 45 1014.3
20260504203106 25 221 4.8 14.5 0.00 0.00 0.00 48 1014.2
20260504203012 25 218 1.6 14.5 0.00 0.00 0.00 48 1014.1
20260504202206 25 207 3.2 12.9 0.00 0.00 0.00 45 1014.4
20260504201514 25 209 1.6 9.7 0.00 0.00 0.00 48 1014.3
20260504201306 25 267 3.2 11.3 0.00 0.00 0.00 46 1014.5
20260504200406 25 277 4.8 14.5 0.00 0.00 0.00 46 1014.6
20260504200020 25 288 6.4 14.5 0.00 0.00 0.00 46 1014.6
20260504195506 25 261 3.2 11.3 0.00 0.00 0.00 47 1014.7
20260504194606 25 141 3.2 12.9 0.00 0.00 0.00 49 1014.9
20260504194509 24 64 3.2 12.9 0.00 0.00 0.00 49 1014.7
20260504193727 24 127 3.2 8.0 0.00 0.00 0.00 51 1015.0
20260504193013 23 223 1.6 6.4 0.00 0.00 0.00 51 1015.0
20260504192806 24 289 3.2 12.9 0.00 0.00 0.00 49 1015.2
20260504191906 25 255 3.2 11.3 0.00 0.00 0.00 49 1015.3
20260504191517 24 239 3.2 12.9 0.00 0.00 0.00 47 1015.3
20260504191006 24 266 4.8 14.5 0.00 0.00 0.00 47 1015.4
20260504190106 24 274 3.2 6.4 0.00 0.00 0.00 48 1015.5
20260504190004 24 274 1.6 6.4 0.00 0.00 0.00 49 1015.4
20260504185227 24 260 4.8 11.3 0.00 0.00 0.00 52 1015.7
20260504184507 23 283 4.8 12.9 0.00 0.00 0.00 51 1015.7
20260504184306 23 218 4.8 12.9 0.00 0.00 0.00 50 1015.7
20260504183406 23 214 4.8 12.9 0.00 0.00 0.00 50 1015.8
20260504183011 23 70 3.2 8.0 0.00 0.00 0.00 48 1015.7
20260504182506 23 230 3.2 9.7 0.00 0.00 0.00 52 1015.9
20260504181606 23 182 1.6 6.4 0.00 0.00 0.00 54 1016.0
20260504181514 23 86 0.0 9.7 0.00 0.00 0.00 52 1015.9
20260504180706 23 240 3.2 11.3 0.00 0.00 0.00 50 1016.1
20260504180015 23 133 1.6 12.9 0.00 0.00 0.00 51 1016.1
20260504175828 23 270 4.8 12.9 0.00 0.00 0.00 51 1016.1
20260504174906 23 261 3.2 12.9 0.00 0.00 0.00 52 1016.4
20260504174604 22 260 1.6 11.3 0.00 0.00 0.00 50 1016.4
20260504174007 22 272 4.8 14.5 0.00 0.00 0.00 52 1016.4
20260504173106 22 269 4.8 14.5 0.00 0.00 0.00 51 1016.6
20260504173005 22 283 3.2 12.9 0.00 0.00 0.00 53 1016.6
20260504172206 22 329 3.2 12.9 0.00 0.00 0.00 52 1016.8
20260504171508 22 89 1.6 12.9 0.00 0.00 0.00 51 1016.9
20260504171306 22 272 3.2 12.9 0.00 0.00 0.00 50 1016.9
20260504170406 22 268 4.8 16.1 0.00 0.00 0.00 51 1017.0
20260504160107 21 264 4.8 17.7 0.00 0.00 0.00 55 1017.7